Location: Unspecified
(0.0000°N, 0.0000°E)
Time: 19:32:27
(UTC+00:00)

Vanguard 1 Rocket - Pass Details

Date: 22 April 2026
Orbit: 655 x 4212 km, 34.3° (Epoch: 17 May)

Event Time Altitude Azimuth Distance (km) Brightness Sun altitude
Rises 00:58:38 0° 314° (NW) 8,360 12.3 -70.8°
Reaches altitude 10° 01:07:23 10° 327° (NNW) 6,992 11.8 -69.1°
Maximum altitude 01:22:49 23° 12° (NNE) 4,815 11.0 -65.8°
Drops below altitude 10° 01:33:13 10° 59° (ENE) 4,680 11.3 -63.6°
Sets 01:37:18 0° 74° (ENE) 5,162 11.6 -62.7°
